Regional Weather Roundup
Issued by NWS Cleveland, OH

Home | Current Version | Previous Version | Text Only | Print | Product List | Glossary Off
Versions: 1 2 3 4 5 6 7 8 9 10 11 12 13 14 15 16 17 18 19 20 21 22 23 24 25 26 27 28 29 30 31 32 33 34 35 36 37 38 39 40 41 42 43 44 45 46 47 48 49 50

000
ASUS41 KCLE 040600
RWRCLE
OHIO REGIONAL WEATHER ROUNDUP
NATIONAL WEATHER SERVICE WILMINGTON, OH
200 AM EDT SAT JUL 04 2015

NOTE: "FAIR" INDICATES FEW OR NO CLOUDS BELOW 12,000 FEET WITH NO
SIGNIFICANT WEATHER AND/OR OBSTRUCTIONS TO VISIBILITY.

OHZ001>008-015>018-024>027-034-035-043-044-040700-
   NORTHWEST OHIO

CITY           SKY/WX    TMP DP  RH WIND       PRES   REMARKS
DEFIANCE       CLEAR     57  54  89 CALM      29.94S
FINDLAY        CLEAR     57  52  83 CALM      29.93S
TOLEDO EXPRESS CLEAR     56  52  86 CALM      29.93F
TOLEDO EXEC    CLEAR     58  53  84 CALM      29.94S
LIMA           CLEAR     58  55  90 CALM      29.94S
$$

OHZ009>014-019>023-028>033-038-089-040700-
   NORTHEAST OHIO

CITY           SKY/WX    TMP DP  RH WIND       PRES   REMARKS
CLE-HOPKINS    CLEAR     59  53  80 CALM      29.93R
CLE-LAKEFRONT  CLEAR     65  52  62 CALM      29.90S
CUY CO. ARPT   NOT AVBL
LORAIN-ELYRIA  CLEAR     57  55  93 N3        29.92S
ASHTABULA      PTCLDY    57  53  86 CALM      29.91F
AKRON-CANTON   MOCLDY    62  54  74 N3        29.90F
WOOSTER        NOT AVBL
MANSFIELD      CLEAR     57  55  93 NW7       29.92F
YOUNGSTOWN     CLOUDY    64  56  75 NE3       29.90S
$$

OHZ042-051>053-060>062-070>072-077>081-040700-
  SOUTHWEST OHIO

CITY           SKY/WX    TMP DP  RH WIND       PRES   REMARKS
CINC-COVINGTON CLOUDY    68  64  87 NW3       29.92R
CINC-LUNKEN    CLOUDY    67  65  93 CALM      29.91S
HAMILTON       CLOUDY    66  65  96 NW5       29.92S FOG
DAYTON         NOT AVBL
WRIGHT-PAT AFB CLEAR     63  63  99 N1        29.92S
DAYTON GENERAL PTCLDY    64  63  96 NW3       29.92R FOG
WILMINGTON     MOCLDY    63  61  93 N3        29.92S FOG
$$

OHZ036-037-039>041-045>050-054>059-063>069-073>076-082>088-040700-
  CENTRAL AND SOUTHEAST OHIO

CITY           SKY/WX    TMP DP  RH WIND       PRES   REMARKS
COLUMBUS       CLOUDY    65  64  97 N3        29.89S
OSU AIRPORT    PTCLDY    63  58  83 NW5       29.91S
BOLTON FIELD   NOT AVBL
RICKENBACK AFB NOT AVBL
NEWARK         MOCLDY    63  62  97 CALM      29.89S FOG
MARION         CLEAR     59  55  87 N5        29.92S
LANCASTER      MOCLDY    62  60  93 CALM      29.90S FOG
ZANESVILLE     MOCLDY    63  61  93 N3        29.88F FOG
NEW PHILLY     MOCLDY    65  63  93 CALM      29.88F FOG
$$


USA.gov is the U.S. government's official web portal to all federal, state and local government web resources and services.